owner,sensor,date,latitude,longitude,vertical_datum,sea_water_temperature,qcFlag 
TCOON,ioos:station:TCOON:148:1,2014-08-01T00:30:00Z,27.9799,-97.0288,0.0,30.9,2 
TCOON,ioos:station:TCOON:148:1,2014-08-01T01:30:00Z,27.9799,-97.0288,0.0,30.9,2 
TCOON,ioos:station:TCOON:148:1,2014-08-01T02:30:00Z,27.9799,-97.0288,0.0,30.9,2 
TCOON,ioos:station:TCOON:148:1,2014-08-01T03:30:00Z,27.9799,-97.0288,0.0,30.8,2 
TCOON,ioos:station:TCOON:148:1,2014-08-01T04:30:00Z,27.9799,-97.0288,0.0,30.7,2 
TCOON,ioos:station:TCOON:148:1,2014-08-01T05:30:00Z,27.9799,-97.0288,0.0,30.6,2 
TCOON,ioos:station:TCOON:148:1,2014-08-01T07:00:00Z,27.9799,-97.0288,0.0,30.5,2 
TCOON,ioos:station:TCOON:148:1,2014-08-01T08:30:00Z,27.9799,-97.0288,0.0,30.4,2 
TCOON,ioos:station:TCOON:148:1,2014-08-01T09:30:00Z,27.9799,-97.0288,0.0,30.3,2 
TCOON,ioos:station:TCOON:148:1,2014-08-01T10:30:00Z,27.9799,-97.0288,0.0,30.3,2 
TCOON,ioos:station:TCOON:148:1,2014-08-01T12:30:00Z,27.9799,-97.0288,0.0,30.2,2 
TCOON,ioos:station:TCOON:148:1,2014-08-01T14:30:00Z,27.9799,-97.0288,0.0,30.2,2 
TCOON,ioos:station:TCOON:148:1,2014-08-01T15:30:00Z,27.9799,-97.0288,0.0,30.2,2 
TCOON,ioos:station:TCOON:148:1,2014-08-01T16:30:00Z,27.9799,-97.0288,0.0,30.3,2 
TCOON,ioos:station:TCOON:148:1,2014-08-01T17:30:00Z,27.9799,-97.0288,0.0,30.3,2 
TCOON,ioos:station:TCOON:148:1,2014-08-01T20:30:00Z,27.9799,-97.0288,0.0,30.6,2 
TCOON,ioos:station:TCOON:148:1,2014-08-01T21:30:00Z,27.9799,-97.0288,0.0,30.8,2 
TCOON,ioos:station:TCOON:148:1,2014-08-02T00:30:00Z,27.9799,-97.0288,0.0,30.9,2 
TCOON,ioos:station:TCOON:148:1,2014-08-02T02:30:00Z,27.9799,-97.0288,0.0,30.8,2 
TCOON,ioos:station:TCOON:148:1,2014-08-02T04:30:00Z,27.9799,-97.0288,0.0,30.7,2 
TCOON,ioos:station:TCOON:148:1,2014-08-02T05:30:00Z,27.9799,-97.0288,0.0,30.7,2 
TCOON,ioos:station:TCOON:148:1,2014-08-02T06:30:00Z,27.9799,-97.0288,0.0,30.6,2 
TCOON,ioos:station:TCOON:148:1,2014-08-02T07:30:00Z,27.9799,-97.0288,0.0,30.6,2 
TCOON,ioos:station:TCOON:148:1,2014-08-02T10:30:00Z,27.9799,-97.0288,0.0,30.3,2 
TCOON,ioos:station:TCOON:148:1,2014-08-02T11:30:00Z,27.9799,-97.0288,0.0,30.1,2 
TCOON,ioos:station:TCOON:148:1,2014-08-02T12:30:00Z,27.9799,-97.0288,0.0,30.0,2 
TCOON,ioos:station:TCOON:148:1,2014-08-02T13:30:00Z,27.9799,-97.0288,0.0,29.9,2 
TCOON,ioos:station:TCOON:148:1,2014-08-02T14:30:00Z,27.9799,-97.0288,0.0,29.9,2 
TCOON,ioos:station:TCOON:148:1,2014-08-02T15:30:00Z,27.9799,-97.0288,0.0,29.9,2 
TCOON,ioos:station:TCOON:148:1,2014-08-02T17:30:00Z,27.9799,-97.0288,0.0,30.0,2 
TCOON,ioos:station:TCOON:148:1,2014-08-02T18:30:00Z,27.9799,-97.0288,0.0,30.1,2 
TCOON,ioos:station:TCOON:148:1,2014-08-02T19:30:00Z,27.9799,-97.0288,0.0,30.1,2 
TCOON,ioos:station:TCOON:148:1,2014-08-02T20:30:00Z,27.9799,-97.0288,0.0,30.2,2 
TCOON,ioos:station:TCOON:148:1,2014-08-02T22:30:00Z,27.9799,-97.0288,0.0,30.3,2 
TCOON,ioos:station:TCOON:148:1,2014-08-03T01:30:00Z,27.9799,-97.0288,0.0,30.2,2 
TCOON,ioos:station:TCOON:148:1,2014-08-03T02:30:00Z,27.9799,-97.0288,0.0,30.1,2 
TCOON,ioos:station:TCOON:148:1,2014-08-03T03:30:00Z,27.9799,-97.0288,0.0,30.0,2 
TCOON,ioos:station:TCOON:148:1,2014-08-03T04:30:00Z,27.9799,-97.0288,0.0,29.9,2 
TCOON,ioos:station:TCOON:148:1,2014-08-03T05:30:00Z,27.9799,-97.0288,0.0,29.8,2 
TCOON,ioos:station:TCOON:148:1,2014-08-03T07:00:00Z,27.9799,-97.0288,0.0,29.8,2 
TCOON,ioos:station:TCOON:148:1,2014-08-03T08:30:00Z,27.9799,-97.0288,0.0,29.6,2 
TCOON,ioos:station:TCOON:148:1,2014-08-03T09:30:00Z,27.9799,-97.0288,0.0,29.6,2 
TCOON,ioos:station:TCOON:148:1,2014-08-03T10:30:00Z,27.9799,-97.0288,0.0,29.5,2 
TCOON,ioos:station:TCOON:148:1,2014-08-03T12:30:00Z,27.9799,-97.0288,0.0,29.4,2 
TCOON,ioos:station:TCOON:148:1,2014-08-03T14:30:00Z,27.9799,-97.0288,0.0,29.3,2 
TCOON,ioos:station:TCOON:148:1,2014-08-03T15:30:00Z,27.9799,-97.0288,0.0,29.3,2 
TCOON,ioos:station:TCOON:148:1,2014-08-03T18:30:00Z,27.9799,-97.0288,0.0,29.6,2 
TCOON,ioos:station:TCOON:148:1,2014-08-03T21:30:00Z,27.9799,-97.0288,0.0,29.7,2 
TCOON,ioos:station:TCOON:148:1,2014-08-03T22:30:00Z,27.9799,-97.0288,0.0,29.7,2 
TCOON,ioos:station:TCOON:148:1,2014-08-03T23:30:00Z,27.9799,-97.0288,0.0,29.9,2 
TCOON,ioos:station:TCOON:148:1,2014-08-04T01:30:00Z,27.9799,-97.0288,0.0,30.0,2 
TCOON,ioos:station:TCOON:148:1,2014-08-04T02:30:00Z,27.9799,-97.0288,0.0,30.1,2 
TCOON,ioos:station:TCOON:148:1,2014-08-04T03:30:00Z,27.9799,-97.0288,0.0,30.0,2 
TCOON,ioos:station:TCOON:148:1,2014-08-04T04:30:00Z,27.9799,-97.0288,0.0,29.9,2 
TCOON,ioos:station:TCOON:148:1,2014-08-04T05:30:00Z,27.9799,-97.0288,0.0,29.9,2 
TCOON,ioos:station:TCOON:148:1,2014-08-04T07:00:00Z,27.9799,-97.0288,0.0,29.9,2 
TCOON,ioos:station:TCOON:148:1,2014-08-04T08:30:00Z,27.9799,-97.0288,0.0,29.8,2 
TCOON,ioos:station:TCOON:148:1,2014-08-04T09:30:00Z,27.9799,-97.0288,0.0,29.8,2 
TCOON,ioos:station:TCOON:148:1,2014-08-04T10:30:00Z,27.9799,-97.0288,0.0,29.8,2 
TCOON,ioos:station:TCOON:148:1,2014-08-04T11:30:00Z,27.9799,-97.0288,0.0,29.7,2 
TCOON,ioos:station:TCOON:148:1,2014-08-04T12:30:00Z,27.9799,-97.0288,0.0,29.6,2 
TCOON,ioos:station:TCOON:148:1,2014-08-04T14:30:00Z,27.9799,-97.0288,0.0,29.5,2 
TCOON,ioos:station:TCOON:148:1,2014-08-04T16:30:00Z,27.9799,-97.0288,0.0,29.5,2 
TCOON,ioos:station:TCOON:148:1,2014-08-04T17:30:00Z,27.9799,-97.0288,0.0,29.6,2 
TCOON,ioos:station:TCOON:148:1,2014-08-04T21:30:00Z,27.9799,-97.0288,0.0,29.9,2 
TCOON,ioos:station:TCOON:148:1,2014-08-04T22:30:00Z,27.9799,-97.0288,0.0,30.2,2 
TCOON,ioos:station:TCOON:148:1,2014-08-04T23:30:00Z,27.9799,-97.0288,0.0,30.6,2 
TCOON,ioos:station:TCOON:148:1,2014-08-05T01:30:00Z,27.9799,-97.0288,0.0,30.5,2 
TCOON,ioos:station:TCOON:148:1,2014-08-05T02:30:00Z,27.9799,-97.0288,0.0,30.5,2 
TCOON,ioos:station:TCOON:148:1,2014-08-05T03:30:00Z,27.9799,-97.0288,0.0,30.4,2 
TCOON,ioos:station:TCOON:148:1,2014-08-05T04:30:00Z,27.9799,-97.0288,0.0,30.3,2 
TCOON,ioos:station:TCOON:148:1,2014-08-05T05:30:00Z,27.9799,-97.0288,0.0,30.2,2 
TCOON,ioos:station:TCOON:148:1,2014-08-05T06:30:00Z,27.9799,-97.0288,0.0,30.1,2 
TCOON,ioos:station:TCOON:148:1,2014-08-05T07:30:00Z,27.9799,-97.0288,0.0,30.1,2 
TCOON,ioos:station:TCOON:148:1,2014-08-05T08:30:00Z,27.9799,-97.0288,0.0,30.0,2 
TCOON,ioos:station:TCOON:148:1,2014-08-05T09:30:00Z,27.9799,-97.0288,0.0,29.9,2 
TCOON,ioos:station:TCOON:148:1,2014-08-05T10:30:00Z,27.9799,-97.0288,0.0,29.9,2 
TCOON,ioos:station:TCOON:148:1,2014-08-05T11:30:00Z,27.9799,-97.0288,0.0,29.8,2 
TCOON,ioos:station:TCOON:148:1,2014-08-05T12:30:00Z,27.9799,-97.0288,0.0,29.8,2 
TCOON,ioos:station:TCOON:148:1,2014-08-05T13:30:00Z,27.9799,-97.0288,0.0,29.8,2 
TCOON,ioos:station:TCOON:148:1,2014-08-05T14:30:00Z,27.9799,-97.0288,0.0,29.8,2 
TCOON,ioos:station:TCOON:148:1,2014-08-05T16:30:00Z,27.9799,-97.0288,0.0,29.9,2 
TCOON,ioos:station:TCOON:148:1,2014-08-05T17:30:00Z,27.9799,-97.0288,0.0,29.9,2 
TCOON,ioos:station:TCOON:148:1,2014-08-05T18:30:00Z,27.9799,-97.0288,0.0,30.0,2 
TCOON,ioos:station:TCOON:148:1,2014-08-05T20:30:00Z,27.9799,-97.0288,0.0,30.0,2 
TCOON,ioos:station:TCOON:148:1,2014-08-05T21:30:00Z,27.9799,-97.0288,0.0,30.1,2 
TCOON,ioos:station:TCOON:148:1,2014-08-05T22:30:00Z,27.9799,-97.0288,0.0,30.4,2 
TCOON,ioos:station:TCOON:148:1,2014-08-06T01:30:00Z,27.9799,-97.0288,0.0,30.8,2 
TCOON,ioos:station:TCOON:148:1,2014-08-06T02:30:00Z,27.9799,-97.0288,0.0,30.7,2 
TCOON,ioos:station:TCOON:148:1,2014-08-06T03:30:00Z,27.9799,-97.0288,0.0,30.7,2 
TCOON,ioos:station:TCOON:148:1,2014-08-06T04:30:00Z,27.9799,-97.0288,0.0,30.6,2 
TCOON,ioos:station:TCOON:148:1,2014-08-06T05:30:00Z,27.9799,-97.0288,0.0,30.5,2 
TCOON,ioos:station:TCOON:148:1,2014-08-06T07:00:00Z,27.9799,-97.0288,0.0,30.4,2 
TCOON,ioos:station:TCOON:148:1,2014-08-06T07:30:00Z,27.9799,-97.0288,0.0,30.4,2 
TCOON,ioos:station:TCOON:148:1,2014-08-06T08:30:00Z,27.9799,-97.0288,0.0,30.3,2 
TCOON,ioos:station:TCOON:148:1,2014-08-06T09:30:00Z,27.9799,-97.0288,0.0,30.3,2 
TCOON,ioos:station:TCOON:148:1,2014-08-06T10:30:00Z,27.9799,-97.0288,0.0,30.2,2 
TCOON,ioos:station:TCOON:148:1,2014-08-06T12:30:00Z,27.9799,-97.0288,0.0,30.1,2 
TCOON,ioos:station:TCOON:148:1,2014-08-06T13:30:00Z,27.9799,-97.0288,0.0,30.0,2 
TCOON,ioos:station:TCOON:148:1,2014-08-06T14:30:00Z,27.9799,-97.0288,0.0,30.1,2 
TCOON,ioos:station:TCOON:148:1,2014-08-06T16:30:00Z,27.9799,-97.0288,0.0,30.2,2 
TCOON,ioos:station:TCOON:148:1,2014-08-06T17:30:00Z,27.9799,-97.0288,0.0,30.4,2 
TCOON,ioos:station:TCOON:148:1,2014-08-06T18:30:00Z,27.9799,-97.0288,0.0,30.5,2 
TCOON,ioos:station:TCOON:148:1,2014-08-06T19:30:00Z,27.9799,-97.0288,0.0,30.6,2 
TCOON,ioos:station:TCOON:148:1,2014-08-06T20:30:00Z,27.9799,-97.0288,0.0,30.7,2 
TCOON,ioos:station:TCOON:148:1,2014-08-06T21:30:00Z,27.9799,-97.0288,0.0,30.7,2 
TCOON,ioos:station:TCOON:148:1,2014-08-07T01:30:00Z,27.9799,-97.0288,0.0,30.9,2 
TCOON,ioos:station:TCOON:148:1,2014-08-07T02:30:00Z,27.9799,-97.0288,0.0,30.8,2 
TCOON,ioos:station:TCOON:148:1,2014-08-07T03:30:00Z,27.9799,-97.0288,0.0,30.7,2 
TCOON,ioos:station:TCOON:148:1,2014-08-07T04:30:00Z,27.9799,-97.0288,0.0,30.7,2 
TCOON,ioos:station:TCOON:148:1,2014-08-07T05:30:00Z,27.9799,-97.0288,0.0,30.6,2 
TCOON,ioos:station:TCOON:148:1,2014-08-07T07:00:00Z,27.9799,-97.0288,0.0,30.5,2 
TCOON,ioos:station:TCOON:148:1,2014-08-07T07:30:00Z,27.9799,-97.0288,0.0,30.4,2 
TCOON,ioos:station:TCOON:148:1,2014-08-07T08:30:00Z,27.9799,-97.0288,0.0,30.3,2 
TCOON,ioos:station:TCOON:148:1,2014-08-07T09:30:00Z,27.9799,-97.0288,0.0,30.3,2 
TCOON,ioos:station:TCOON:148:1,2014-08-07T10:30:00Z,27.9799,-97.0288,0.0,30.2,2 
TCOON,ioos:station:TCOON:148:1,2014-08-07T14:30:00Z,27.9799,-97.0288,0.0,30.0,2 
TCOON,ioos:station:TCOON:148:1,2014-08-07T15:30:00Z,27.9799,-97.0288,0.0,30.1,2 
TCOON,ioos:station:TCOON:148:1,2014-08-07T16:30:00Z,27.9799,-97.0288,0.0,30.2,2 
TCOON,ioos:station:TCOON:148:1,2014-08-07T17:30:00Z,27.9799,-97.0288,0.0,30.3,2 
TCOON,ioos:station:TCOON:148:1,2014-08-07T18:30:00Z,27.9799,-97.0288,0.0,30.4,2 
TCOON,ioos:station:TCOON:148:1,2014-08-07T20:30:00Z,27.9799,-97.0288,0.0,30.7,2 
TCOON,ioos:station:TCOON:148:1,2014-08-07T21:30:00Z,27.9799,-97.0288,0.0,30.8,2 
TCOON,ioos:station:TCOON:148:1,2014-08-07T22:30:00Z,27.9799,-97.0288,0.0,31.0,2 
TCOON,ioos:station:TCOON:148:1,2014-08-07T23:30:00Z,27.9799,-97.0288,0.0,31.0,2 
TCOON,ioos:station:TCOON:148:1,2014-08-08T00:30:00Z,27.9799,-97.0288,0.0,30.9,2 
TCOON,ioos:station:TCOON:148:1,2014-08-08T01:30:00Z,27.9799,-97.0288,0.0,30.8,2 
TCOON,ioos:station:TCOON:148:1,2014-08-08T03:30:00Z,27.9799,-97.0288,0.0,30.7,2 
TCOON,ioos:station:TCOON:148:1,2014-08-08T04:30:00Z,27.9799,-97.0288,0.0,30.6,2 
TCOON,ioos:station:TCOON:148:1,2014-08-08T05:30:00Z,27.9799,-97.0288,0.0,30.5,2 
TCOON,ioos:station:TCOON:148:1,2014-08-08T07:00:00Z,27.9799,-97.0288,0.0,30.4,2 
TCOON,ioos:station:TCOON:148:1,2014-08-08T07:30:00Z,27.9799,-97.0288,0.0,30.3,2 
TCOON,ioos:station:TCOON:148:1,2014-08-08T08:30:00Z,27.9799,-97.0288,0.0,30.3,2 
TCOON,ioos:station:TCOON:148:1,2014-08-08T09:30:00Z,27.9799,-97.0288,0.0,30.2,2 
TCOON,ioos:station:TCOON:148:1,2014-08-08T10:30:00Z,27.9799,-97.0288,0.0,30.1,2 
TCOON,ioos:station:TCOON:148:1,2014-08-08T12:30:00Z,27.9799,-97.0288,0.0,30.0,2 
TCOON,ioos:station:TCOON:148:1,2014-08-08T14:30:00Z,27.9799,-97.0288,0.0,30.0,2 
TCOON,ioos:station:TCOON:148:1,2014-08-08T15:30:00Z,27.9799,-97.0288,0.0,30.1,2 
TCOON,ioos:station:TCOON:148:1,2014-08-08T18:30:00Z,27.9799,-97.0288,0.0,30.3,2 
TCOON,ioos:station:TCOON:148:1,2014-08-08T20:30:00Z,27.9799,-97.0288,0.0,30.8,2 
TCOON,ioos:station:TCOON:148:1,2014-08-08T21:30:00Z,27.9799,-97.0288,0.0,31.0,2 
TCOON,ioos:station:TCOON:148:1,2014-08-08T22:30:00Z,27.9799,-97.0288,0.0,30.9,2 
TCOON,ioos:station:TCOON:148:1,2014-08-08T23:30:00Z,27.9799,-97.0288,0.0,31.0,2 
TCOON,ioos:station:TCOON:148:1,2014-08-09T00:30:00Z,27.9799,-97.0288,0.0,31.0,2 
TCOON,ioos:station:TCOON:148:1,2014-08-09T01:30:00Z,27.9799,-97.0288,0.0,30.9,2 
TCOON,ioos:station:TCOON:148:1,2014-08-09T02:30:00Z,27.9799,-97.0288,0.0,30.8,2 
TCOON,ioos:station:TCOON:148:1,2014-08-09T03:30:00Z,27.9799,-97.0288,0.0,30.7,2 
TCOON,ioos:station:TCOON:148:1,2014-08-09T04:30:00Z,27.9799,-97.0288,0.0,30.7,2 
TCOON,ioos:station:TCOON:148:1,2014-08-09T05:30:00Z,27.9799,-97.0288,0.0,30.6,2 
TCOON,ioos:station:TCOON:148:1,2014-08-09T06:30:00Z,27.9799,-97.0288,0.0,30.6,2 
TCOON,ioos:station:TCOON:148:1,2014-08-09T07:30:00Z,27.9799,-97.0288,0.0,30.5,2 
TCOON,ioos:station:TCOON:148:1,2014-08-09T08:30:00Z,27.9799,-97.0288,0.0,30.5,2 
TCOON,ioos:station:TCOON:148:1,2014-08-09T09:30:00Z,27.9799,-97.0288,0.0,30.4,2 
TCOON,ioos:station:TCOON:148:1,2014-08-09T11:30:00Z,27.9799,-97.0288,0.0,30.3,2 
TCOON,ioos:station:TCOON:148:1,2014-08-09T12:30:00Z,27.9799,-97.0288,0.0,30.2,2 
TCOON,ioos:station:TCOON:148:1,2014-08-09T14:30:00Z,27.9799,-97.0288,0.0,30.2,2 
TCOON,ioos:station:TCOON:148:1,2014-08-09T16:30:00Z,27.9799,-97.0288,0.0,30.3,2 
TCOON,ioos:station:TCOON:148:1,2014-08-09T17:30:00Z,27.9799,-97.0288,0.0,30.5,2 
TCOON,ioos:station:TCOON:148:1,2014-08-09T18:30:00Z,27.9799,-97.0288,0.0,30.6,2 
TCOON,ioos:station:TCOON:148:1,2014-08-09T19:30:00Z,27.9799,-97.0288,0.0,30.8,2 
TCOON,ioos:station:TCOON:148:1,2014-08-09T20:30:00Z,27.9799,-97.0288,0.0,31.0,2 
TCOON,ioos:station:TCOON:148:1,2014-08-09T22:30:00Z,27.9799,-97.0288,0.0,31.3,2 
TCOON,ioos:station:TCOON:148:1,2014-08-09T23:30:00Z,27.9799,-97.0288,0.0,31.1,2 
TCOON,ioos:station:TCOON:148:1,2014-08-10T00:30:00Z,27.9799,-97.0288,0.0,31.2,2 
TCOON,ioos:station:TCOON:148:1,2014-08-10T02:30:00Z,27.9799,-97.0288,0.0,31.0,2 
TCOON,ioos:station:TCOON:148:1,2014-08-10T03:30:00Z,27.9799,-97.0288,0.0,30.9,2 
TCOON,ioos:station:TCOON:148:1,2014-08-10T04:30:00Z,27.9799,-97.0288,0.0,30.9,2 
TCOON,ioos:station:TCOON:148:1,2014-08-10T05:30:00Z,27.9799,-97.0288,0.0,30.8,2 
TCOON,ioos:station:TCOON:148:1,2014-08-10T07:00:00Z,27.9799,-97.0288,0.0,30.8,2 
TCOON,ioos:station:TCOON:148:1,2014-08-10T07:30:00Z,27.9799,-97.0288,0.0,30.7,2 
TCOON,ioos:station:TCOON:148:1,2014-08-10T08:30:00Z,27.9799,-97.0288,0.0,30.7,2 
TCOON,ioos:station:TCOON:148:1,2014-08-10T09:30:00Z,27.9799,-97.0288,0.0,30.6,2 
TCOON,ioos:station:TCOON:148:1,2014-08-10T11:30:00Z,27.9799,-97.0288,0.0,30.5,2 
TCOON,ioos:station:TCOON:148:1,2014-08-10T12:30:00Z,27.9799,-97.0288,0.0,30.4,2 
TCOON,ioos:station:TCOON:148:1,2014-08-10T14:30:00Z,27.9799,-97.0288,0.0,30.4,2 
TCOON,ioos:station:TCOON:148:1,2014-08-10T15:30:00Z,27.9799,-97.0288,0.0,30.4,2 
TCOON,ioos:station:TCOON:148:1,2014-08-10T17:30:00Z,27.9799,-97.0288,0.0,30.6,2 
TCOON,ioos:station:TCOON:148:1,2014-08-10T22:30:00Z,27.9799,-97.0288,0.0,31.4,2 
TCOON,ioos:station:TCOON:148:1,2014-08-10T23:30:00Z,27.9799,-97.0288,0.0,31.4,2 
TCOON,ioos:station:TCOON:148:1,2014-08-11T00:30:00Z,27.9799,-97.0288,0.0,31.3,2 
TCOON,ioos:station:TCOON:148:1,2014-08-11T01:30:00Z,27.9799,-97.0288,0.0,31.3,2 
TCOON,ioos:station:TCOON:148:1,2014-08-11T02:30:00Z,27.9799,-97.0288,0.0,31.1,2 
TCOON,ioos:station:TCOON:148:1,2014-08-11T03:30:00Z,27.9799,-97.0288,0.0,31.0,2 
TCOON,ioos:station:TCOON:148:1,2014-08-11T04:30:00Z,27.9799,-97.0288,0.0,31.0,2 
TCOON,ioos:station:TCOON:148:1,2014-08-11T05:30:00Z,27.9799,-97.0288,0.0,30.9,2 
TCOON,ioos:station:TCOON:148:1,2014-08-11T06:30:00Z,27.9799,-97.0288,0.0,30.9,2 
TCOON,ioos:station:TCOON:148:1,2014-08-11T07:30:00Z,27.9799,-97.0288,0.0,30.8,2 
TCOON,ioos:station:TCOON:148:1,2014-08-11T08:30:00Z,27.9799,-97.0288,0.0,30.8,2 
TCOON,ioos:station:TCOON:148:1,2014-08-11T10:30:00Z,27.9799,-97.0288,0.0,30.6,2 
TCOON,ioos:station:TCOON:148:1,2014-08-11T11:30:00Z,27.9799,-97.0288,0.0,30.6,2 
TCOON,ioos:station:TCOON:148:1,2014-08-11T12:30:00Z,27.9799,-97.0288,0.0,30.6,2 
TCOON,ioos:station:TCOON:148:1,2014-08-11T14:30:00Z,27.9799,-97.0288,0.0,30.5,2 
TCOON,ioos:station:TCOON:148:1,2014-08-11T16:30:00Z,27.9799,-97.0288,0.0,30.6,2 
TCOON,ioos:station:TCOON:148:1,2014-08-11T17:30:00Z,27.9799,-97.0288,0.0,30.6,2 
TCOON,ioos:station:TCOON:148:1,2014-08-11T19:30:00Z,27.9799,-97.0288,0.0,30.8,2 
TCOON,ioos:station:TCOON:148:1,2014-08-12T02:30:00Z,27.9799,-97.0288,0.0,31.1,2 
TCOON,ioos:station:TCOON:148:1,2014-08-12T03:30:00Z,27.9799,-97.0288,0.0,31.2,2 
TCOON,ioos:station:TCOON:148:1,2014-08-12T04:30:00Z,27.9799,-97.0288,0.0,31.0,2 
TCOON,ioos:station:TCOON:148:1,2014-08-12T05:30:00Z,27.9799,-97.0288,0.0,31.0,2 
TCOON,ioos:station:TCOON:148:1,2014-08-12T07:00:00Z,27.9799,-97.0288,0.0,30.9,2 
TCOON,ioos:station:TCOON:148:1,2014-08-12T07:30:00Z,27.9799,-97.0288,0.0,30.9,2 
TCOON,ioos:station:TCOON:148:1,2014-08-12T10:30:00Z,27.9799,-97.0288,0.0,30.8,2 
TCOON,ioos:station:TCOON:148:1,2014-08-12T11:30:00Z,27.9799,-97.0288,0.0,30.7,2 
TCOON,ioos:station:TCOON:148:1,2014-08-12T12:30:00Z,27.9799,-97.0288,0.0,30.7,2 
TCOON,ioos:station:TCOON:148:1,2014-08-12T13:30:00Z,27.9799,-97.0288,0.0,30.6,2 
TCOON,ioos:station:TCOON:148:1,2014-08-12T16:30:00Z,27.9799,-97.0288,0.0,30.7,2 
TCOON,ioos:station:TCOON:148:1,2014-08-12T17:30:00Z,27.9799,-97.0288,0.0,30.7,2 
TCOON,ioos:station:TCOON:148:1,2014-08-19T14:30:00Z,27.9799,-97.0288,0.0,29.7,2 
TCOON,ioos:station:TCOON:148:1,2014-08-19T16:30:00Z,27.9799,-97.0288,0.0,29.9,2 
TCOON,ioos:station:TCOON:148:1,2014-08-19T17:30:00Z,27.9799,-97.0288,0.0,30.0,2 
TCOON,ioos:station:TCOON:148:1,2014-08-19T18:30:00Z,27.9799,-97.0288,0.0,30.1,2 
TCOON,ioos:station:TCOON:148:1,2014-08-19T20:30:00Z,27.9799,-97.0288,0.0,30.4,2 
TCOON,ioos:station:TCOON:148:1,2014-08-19T21:30:00Z,27.9799,-97.0288,0.0,30.5,2 
TCOON,ioos:station:TCOON:148:1,2014-08-19T22:30:00Z,27.9799,-97.0288,0.0,30.5,2 
TCOON,ioos:station:TCOON:148:1,2014-08-19T23:30:00Z,27.9799,-97.0288,0.0,30.5,2 
TCOON,ioos:station:TCOON:148:1,2014-08-20T00:30:00Z,27.9799,-97.0288,0.0,30.5,2 
TCOON,ioos:station:TCOON:148:1,2014-08-20T01:30:00Z,27.9799,-97.0288,0.0,30.4,2 
TCOON,ioos:station:TCOON:148:1,2014-08-20T02:30:00Z,27.9799,-97.0288,0.0,30.4,2 
TCOON,ioos:station:TCOON:148:1,2014-08-20T03:30:00Z,27.9799,-97.0288,0.0,30.3,2 
TCOON,ioos:station:TCOON:148:1,2014-08-20T04:30:00Z,27.9799,-97.0288,0.0,30.2,2 
TCOON,ioos:station:TCOON:148:1,2014-08-20T05:30:00Z,27.9799,-97.0288,0.0,30.1,2 
TCOON,ioos:station:TCOON:148:1,2014-08-20T06:30:00Z,27.9799,-97.0288,0.0,30.1,2 
TCOON,ioos:station:TCOON:148:1,2014-08-20T07:30:00Z,27.9799,-97.0288,0.0,30.0,2 
TCOON,ioos:station:TCOON:148:1,2014-08-20T08:30:00Z,27.9799,-97.0288,0.0,30.0,2 
TCOON,ioos:station:TCOON:148:1,2014-08-20T09:30:00Z,27.9799,-97.0288,0.0,30.0,2 
TCOON,ioos:station:TCOON:148:1,2014-08-20T10:30:00Z,27.9799,-97.0288,0.0,29.9,2 
TCOON,ioos:station:TCOON:148:1,2014-08-20T12:30:00Z,27.9799,-97.0288,0.0,29.9,2 
TCOON,ioos:station:TCOON:148:1,2014-08-20T13:30:00Z,27.9799,-97.0288,0.0,29.8,2 
TCOON,ioos:station:TCOON:148:1,2014-08-20T14:30:00Z,27.9799,-97.0288,0.0,29.9,2 
TCOON,ioos:station:TCOON:148:1,2014-08-20T16:30:00Z,27.9799,-97.0288,0.0,30.0,2 
TCOON,ioos:station:TCOON:148:1,2014-08-20T17:30:00Z,27.9799,-97.0288,0.0,30.2,2 
TCOON,ioos:station:TCOON:148:1,2014-08-20T18:30:00Z,27.9799,-97.0288,0.0,30.4,2 
TCOON,ioos:station:TCOON:148:1,2014-08-20T20:30:00Z,27.9799,-97.0288,0.0,30.7,2 
TCOON,ioos:station:TCOON:148:1,2014-08-20T22:30:00Z,27.9799,-97.0288,0.0,30.8,2 
TCOON,ioos:station:TCOON:148:1,2014-08-21T01:30:00Z,27.9799,-97.0288,0.0,30.6,2 
TCOON,ioos:station:TCOON:148:1,2014-08-21T03:30:00Z,27.9799,-97.0288,0.0,30.5,2 
TCOON,ioos:station:TCOON:148:1,2014-08-21T04:30:00Z,27.9799,-97.0288,0.0,30.4,2 
TCOON,ioos:station:TCOON:148:1,2014-08-21T05:30:00Z,27.9799,-97.0288,0.0,30.3,2 
TCOON,ioos:station:TCOON:148:1,2014-08-21T07:00:00Z,27.9799,-97.0288,0.0,30.3,2 
TCOON,ioos:station:TCOON:148:1,2014-08-21T07:30:00Z,27.9799,-97.0288,0.0,30.2,2 
TCOON,ioos:station:TCOON:148:1,2014-08-21T08:30:00Z,27.9799,-97.0288,0.0,30.1,2 
TCOON,ioos:station:TCOON:148:1,2014-08-21T09:30:00Z,27.9799,-97.0288,0.0,30.1,2 
TCOON,ioos:station:TCOON:148:1,2014-08-21T10:30:00Z,27.9799,-97.0288,0.0,30.1,2 
TCOON,ioos:station:TCOON:148:1,2014-08-21T11:30:00Z,27.9799,-97.0288,0.0,30.0,2 
TCOON,ioos:station:TCOON:148:1,2014-08-21T12:30:00Z,27.9799,-97.0288,0.0,29.9,2 
TCOON,ioos:station:TCOON:148:1,2014-08-21T13:30:00Z,27.9799,-97.0288,0.0,29.9,2 
TCOON,ioos:station:TCOON:148:1,2014-08-21T14:30:00Z,27.9799,-97.0288,0.0,29.9,2 
TCOON,ioos:station:TCOON:148:1,2014-08-21T15:30:00Z,27.9799,-97.0288,0.0,30.0,2 
TCOON,ioos:station:TCOON:148:1,2014-08-21T16:30:00Z,27.9799,-97.0288,0.0,30.1,2 
TCOON,ioos:station:TCOON:148:1,2014-08-21T17:30:00Z,27.9799,-97.0288,0.0,30.2,2 
TCOON,ioos:station:TCOON:148:1,2014-08-21T18:30:00Z,27.9799,-97.0288,0.0,30.3,2 
TCOON,ioos:station:TCOON:148:1,2014-08-21T19:30:00Z,27.9799,-97.0288,0.0,30.5,2 
TCOON,ioos:station:TCOON:148:1,2014-08-21T20:30:00Z,27.9799,-97.0288,0.0,30.6,2 
TCOON,ioos:station:TCOON:148:1,2014-08-21T21:30:00Z,27.9799,-97.0288,0.0,30.7,2 
TCOON,ioos:station:TCOON:148:1,2014-08-22T00:30:00Z,27.9799,-97.0288,0.0,30.7,2 
TCOON,ioos:station:TCOON:148:1,2014-08-22T01:30:00Z,27.9799,-97.0288,0.0,30.6,2 
TCOON,ioos:station:TCOON:148:1,2014-08-22T02:30:00Z,27.9799,-97.0288,0.0,30.5,2 
TCOON,ioos:station:TCOON:148:1,2014-08-22T03:30:00Z,27.9799,-97.0288,0.0,30.5,2 
TCOON,ioos:station:TCOON:148:1,2014-08-22T04:30:00Z,27.9799,-97.0288,0.0,30.4,2 
TCOON,ioos:station:TCOON:148:1,2014-08-22T05:30:00Z,27.9799,-97.0288,0.0,30.3,2 
TCOON,ioos:station:TCOON:148:1,2014-08-22T07:00:00Z,27.9799,-97.0288,0.0,30.2,2 
TCOON,ioos:station:TCOON:148:1,2014-08-22T07:30:00Z,27.9799,-97.0288,0.0,30.2,2 
TCOON,ioos:station:TCOON:148:1,2014-08-22T08:30:00Z,27.9799,-97.0288,0.0,30.1,2 
TCOON,ioos:station:TCOON:148:1,2014-08-22T09:30:00Z,27.9799,-97.0288,0.0,30.1,2 
TCOON,ioos:station:TCOON:148:1,2014-08-22T10:30:00Z,27.9799,-97.0288,0.0,30.0,2 
TCOON,ioos:station:TCOON:148:1,2014-08-22T12:30:00Z,27.9799,-97.0288,0.0,29.9,2 
TCOON,ioos:station:TCOON:148:1,2014-08-22T14:30:00Z,27.9799,-97.0288,0.0,29.9,2 
TCOON,ioos:station:TCOON:148:1,2014-08-22T15:30:00Z,27.9799,-97.0288,0.0,30.0,2 
TCOON,ioos:station:TCOON:148:1,2014-08-22T16:30:00Z,27.9799,-97.0288,0.0,30.1,2 
TCOON,ioos:station:TCOON:148:1,2014-08-22T17:30:00Z,27.9799,-97.0288,0.0,30.1,2 
TCOON,ioos:station:TCOON:148:1,2014-08-22T22:30:00Z,27.9799,-97.0288,0.0,30.7,2 
TCOON,ioos:station:TCOON:148:1,2014-08-22T23:30:00Z,27.9799,-97.0288,0.0,30.7,2 
TCOON,ioos:station:TCOON:148:1,2014-08-23T01:30:00Z,27.9799,-97.0288,0.0,30.7,2 
TCOON,ioos:station:TCOON:148:1,2014-08-23T02:30:00Z,27.9799,-97.0288,0.0,30.6,2 
TCOON,ioos:station:TCOON:148:1,2014-08-23T03:30:00Z,27.9799,-97.0288,0.0,30.5,2 
TCOON,ioos:station:TCOON:148:1,2014-08-23T04:30:00Z,27.9799,-97.0288,0.0,30.5,2 
TCOON,ioos:station:TCOON:148:1,2014-08-23T05:30:00Z,27.9799,-97.0288,0.0,30.4,2 
TCOON,ioos:station:TCOON:148:1,2014-08-23T06:30:00Z,27.9799,-97.0288,0.0,30.3,2 
TCOON,ioos:station:TCOON:148:1,2014-08-23T07:30:00Z,27.9799,-97.0288,0.0,30.3,2 
TCOON,ioos:station:TCOON:148:1,2014-08-23T08:30:00Z,27.9799,-97.0288,0.0,30.2,2 
TCOON,ioos:station:TCOON:148:1,2014-08-23T09:30:00Z,27.9799,-97.0288,0.0,30.2,2 
TCOON,ioos:station:TCOON:148:1,2014-08-23T10:30:00Z,27.9799,-97.0288,0.0,30.1,2 
TCOON,ioos:station:TCOON:148:1,2014-08-23T12:30:00Z,27.9799,-97.0288,0.0,30.0,2 
TCOON,ioos:station:TCOON:148:1,2014-08-23T13:30:00Z,27.9799,-97.0288,0.0,30.0,2 
TCOON,ioos:station:TCOON:148:1,2014-08-23T14:30:00Z,27.9799,-97.0288,0.0,30.0,2 
TCOON,ioos:station:TCOON:148:1,2014-08-23T15:30:00Z,27.9799,-97.0288,0.0,30.0,2 
TCOON,ioos:station:TCOON:148:1,2014-08-23T16:30:00Z,27.9799,-97.0288,0.0,30.0,2 
TCOON,ioos:station:TCOON:148:1,2014-08-23T17:30:00Z,27.9799,-97.0288,0.0,30.1,2 
TCOON,ioos:station:TCOON:148:1,2014-08-23T18:30:00Z,27.9799,-97.0288,0.0,30.2,2 
TCOON,ioos:station:TCOON:148:1,2014-08-23T19:30:00Z,27.9799,-97.0288,0.0,30.2,2 
TCOON,ioos:station:TCOON:148:1,2014-08-24T00:30:00Z,27.9799,-97.0288,0.0,31.0,2 
TCOON,ioos:station:TCOON:148:1,2014-08-24T01:30:00Z,27.9799,-97.0288,0.0,31.0,2 
TCOON,ioos:station:TCOON:148:1,2014-08-24T02:30:00Z,27.9799,-97.0288,0.0,30.9,2 
TCOON,ioos:station:TCOON:148:1,2014-08-24T03:30:00Z,27.9799,-97.0288,0.0,30.8,2 
TCOON,ioos:station:TCOON:148:1,2014-08-24T04:30:00Z,27.9799,-97.0288,0.0,30.7,2 